Skip Page Navigation
NASA JPL Caltech
NASA Logo - Jet Propulsion Laboratory + View the NASA Portal
+ Center for Near-Earth Object Studies
JPL Home Earth Solar System Stars & Galaxies Technology
JPL Solar System Dynamics
BODIES ORBITS EPHEMERIDES TOOLS PHYSICAL DATA DISCOVERY FAQ SITE MAP
IMPORTANT: The SSD Announcement email list is now available. Major changes are coming in the near future, including possible hostname and/or URL changes. To be notified of such changes, subscribe to this email list.

Please visit this page for more details.


JPL Small-Body Database Browser
Search: [ help ]  
523752 (2014 VU37)
Classification: TransNeptunian Object          SPK-ID: 2523752
Ephemeris | Orbit Diagram | Orbital Elements | Physical Parameters | Discovery Circumstances ]

[ show orbit diagram ]
Orbital Elements at Epoch 2459000.5 (2020-May-31.0) TDB
Reference: JPL 6 (heliocentric ecliptic J2000)
 Element Value Uncertainty (1-sigma)   Units 
e .0468749465193054 2.3176e-05  
a 40.59458837694959 0.0011967 au
q 38.69171921780686 0.0020295 au
i 28.66541938607027 0.00010777 deg
node 248.164952577401 1.9016e-05 deg
peri 342.1322781361177 0.048989 deg
M 202.8498997524289 0.053669 deg
tp 2500239.944021997566
(2133-Apr-28.44402200)
13.818 TDB
period 94471.46278959233
258.65
4.1774
0.01144
d
yr
n .003810674561076662 1.685e-07 deg/d
Q 42.49745753609233 0.0012528 au
  Orbit Determination Parameters
   # obs. used (total)      149  
   data-arc span      3003 days (8.22 yr)  
   first obs. used      2010-10-10  
   last obs. used      2018-12-30  
   planetary ephem.      DE431  
   SB-pert. ephem.      SB431-N16  
   condition code      3  
   norm. resid. RMS      .44195  
   source      ORB  
   producer      Otto Matic  
   solution date      2019-Jul-15 07:00:21  

Additional Information
 Earth MOID = 37.6907 au 
 Jupiter MOID = 33.357 au 
 T_jup = 5.024 
[ hide covariance matrix ]
Orbital Elements at Epoch 2456977.5 (2014-Nov-16.0) TDB
Reference: JPL 6 (heliocentric ecliptic J2000)
 Element Value Uncertainty (1-sigma)   Units 
e .04350907121719878 2.4754e-05  
q 39.03751112451088 0.0020473 au
tp 2498402.908694247257
(2128-Apr-17.40869425)
14.484 TDB
node 248.1750714652283 1.9078e-05 deg
peri 334.4135014819643 0.051742 deg
i 28.5703807835941 0.00010764 deg
  Orbit Determination Parameters
   # obs. used (total)      149  
   data-arc span      3003 days (8.22 yr)  
   first obs. used      2010-10-10  
   last obs. used      2018-12-30  
   planetary ephem.      DE431  
   SB-pert. ephem.      SB431-N16  
   condition code      3  
   norm. resid. RMS      .44195  
   source      ORB  
   producer      Otto Matic  
   solution date      2019-Jul-15 07:00:21  

Additional Information
 Jupiter MOID = 33.357 au 
 T_jup = 5.024 
Orbit Covariance (6×6)
  e q tp node peri i
e 6.127419424860604E-10 -4.738852562195226E-8 -.0001698067032287389 1.760515982954583E-11 -4.431405689958358E-7 -2.997203470126548E-10
q -4.738852562195226E-8 4.191443128029486E-6 .003902051851568554 -2.052674887716949E-9 -8.717665456136446E-7 3.441186691696541E-8
tp -.0001698067032287389 .003902051851568554 209.7863387318312 7.132604859120082E-6 .7420810178468505 -.0001120715935091835
node 1.760515982954583E-11 -2.052674887716949E-9 7.132604859120082E-6 3.639777830924524E-10 3.271416929033218E-8 -1.680699669091807E-9
peri -4.431405689958358E-7 -8.717665456136446E-7 .7420810178468505 3.271416929033218E-8 .002677270491347174 -5.252797297126618E-7
i -2.997203470126548E-10 3.441186691696541E-8 -.0001120715935091835 -1.680699669091807E-9 -5.252797297126618E-7 1.158651271405613E-8

Ephemeris | Orbit Diagram | Orbital Elements | Physical Parameters | Discovery Circumstances ]

Physical Parameter Table
Parameter Symbol Value Units Sigma Reference Notes
absolute magnitude H 5.1   n/a MPO450813  

523752 (2014 VU37)          Discovered 2010-Oct-10 by Pan-STARRS 1 at Haleakala
Reference: Last Updated: 2018-10-01
Ephemeris | Orbit Diagram | Orbital Elements | Physical Parameters | Discovery Circumstances ]
ABOUT SSD CREDITS/AWARDS PRIVACY/COPYRIGHT GLOSSARY LINKS
FirstGov 2020-Feb-19 14:27 UT
(server date/time)  
NASA Home Page
Site Manager:   Ryan S. Park
Webmaster  Alan B. Chamberlin